Location: Landeleau
(48.2273°N, 3.7285°W)
Time: 07:39:03
(UTC+00:00)

Cosmos 2366 rocket - Pass Details

Date: 30 March 2020
Orbit: 955 x 997 km, 82.9° (Epoch: 24 May)

Event Time Altitude Azimuth Distance (km) Brightness Sun altitude
Rises 22:20:57 0° 349° (N) 3,652 7.9 -31.5°
Reaches altitude 10° 22:23:27 10° 348° (NNW) 2,699 7.1 -31.8°
Enters shadow 22:29:00 67° 307° (NW) 1,032 4.1 -32.3°
